Grand Forks, ND

9:21 PM CDT on June 22, 2017 (GMT -0500)
Grand Forks International

Weather History for KGFK - January, 2014

Change the Weather History Date:

Friday, January 3, 2014

  Actual Average Record
Temperature  
Mean Temperature 10 °F 7 °F  
Max Temperature 25 °F 16 °F 41 °F (2007)
Min Temperature -6 °F -2 °F -31 °F (1982)
Degree Days  
Heating Degree Days 55 58  
Month to date heating degree days 222 174  
Since 1 July heating degree days 4341 4033  
Cooling Degree Days 0 0  
Month to date cooling degree days 0 0  
Year to date cooling degree days 0 0  
Moisture  
Dew Point 6 °F    
Average Humidity 82    
Maximum Humidity 92    
Minimum Humidity 72    
Precipitation  
Precipitation 0.08 in 0.02 in 0.14 in (2009)
Month to date precipitation 0.09 0.06  
Year to date precipitation 0.09 0.06  
Snow  
Snow 1.30 in 0.40 in 2.30 in (2009)
Month to date snowfall 1.4 1.1  
Since 1 July snowfall 25.8 21.0  
Snow Depth 9.00 in    
Sea Level Pressure  
Sea Level Pressure 29.51 in    
Wind  
Wind Speed 23 mph (South)    
Max Wind Speed 36 mph    
Max Gust Speed 43 mph    
Visibility 2 miles    
Events Rain , Snow    
T = Trace of Precipitation, MM = Missing Value Source: NWS Daily Summary

Daily Weather History Graph

Daily Weather History Graph

Search for Another Location

Airport or City:

Trip Planner

Search our weather history database for the weather conditions in past years. The results will help you decide how hot, cold, wet, or windy it might be!

Date:

Astronomy

Jan. 03, 2014 Rise Set
Actual Time 8:18 AM CST 4:48 PM CST
Civil Twilight 7:42 AM CST 5:24 PM CST
Nautical Twilight 7:02 AM CST 6:03 PM CST
Astronomical Twilight 6:25 AM CST 6:41 PM CST
Moon 9:31 AM CST (1/3) 8:14 PM CST (1/3)
Length of Visible Light 9h 42m
Length of Day
8h 30m
Waxing Crescent, 8% of the Moon is Illuminated
Jan 3
Waxing Crescent
Jan 7
First Quarter
Jan 15
Full
Jan 23
Last Quarter
Jan 30
New

Hourly Weather History & Observations

Time (CST) Temp. Windchill Dew Point Humidity Pressure Visibility Wind Dir Wind Speed Gust Speed Precip Events Conditions
12:24 AM -5.8 °F -32.4 °F -9.4 °F 84% 29.99 in 2.5 mi South 26.5 mph 33.4 mph N/A   Haze
12:53 AM -5.1 °F -29.0 °F -9.9 °F 80% 30.02 in 2.5 mi South 20.7 mph 31.1 mph N/A   Haze
1:06 AM -4.0 °F -28.1 °F -9.4 °F 78% 29.92 in 2.5 mi South 21.9 mph 31.1 mph N/A   Haze
1:27 AM -2.2 °F -26.7 °F -9.4 °F 71% 29.90 in 4.0 mi South 24.2 mph 31.1 mph N/A   Haze
1:44 AM -2.2 °F -28.0 °F -7.6 °F 78% 29.89 in 2.0 mi South 27.6 mph 33.4 mph N/A   Haze
1:53 AM -2.9 °F -29.0 °F -8.0 °F 79% 29.98 in 2.5 mi South 27.6 mph 33.4 mph N/A   Haze
2:13 AM -2.2 °F -26.2 °F -7.6 °F 78% 29.86 in 3.0 mi South 23.0 mph 31.1 mph N/A   Haze
2:28 AM -2.2 °F -26.2 °F -7.6 °F 78% 29.84 in 2.5 mi South 23.0 mph 32.2 mph N/A   Haze
2:36 AM -2.2 °F -25.7 °F -7.6 °F 78% 29.83 in 4.0 mi South 21.9 mph 29.9 mph N/A   Haze
2:53 AM -0.9 °F -25.5 °F -7.1 °F 75% 29.89 in 3.0 mi South 25.3 mph 32.2 mph N/A   Haze
3:10 AM -0.4 °F -24.7 °F -5.8 °F 78% 29.77 in 2.5 mi South 25.3 mph 33.4 mph N/A   Haze
3:23 AM -0.4 °F -24.7 °F -5.8 °F 78% 29.76 in 3.0 mi South 25.3 mph 35.7 mph N/A   Haze
3:30 AM -0.4 °F -24.7 °F -5.8 °F 78% 29.76 in 2.0 mi South 25.3 mph 35.7 mph N/A   Haze
3:53 AM -0.0 °F -24.7 °F -5.1 °F 79% 29.81 in 2.0 mi South 26.5 mph 34.5 mph N/A   Haze
4:00 AM -0.4 °F -23.8 °F -4.0 °F 85% 29.72 in 1.8 mi South 23.0 mph 34.5 mph N/A   Overcast
4:09 AM 1.4 °F -22.7 °F -4.0 °F 78% 29.72 in 2.5 mi South 26.5 mph 33.4 mph N/A   Haze
4:30 AM 1.4 °F -22.3 °F -2.2 °F 85% 29.68 in 1.5 mi South 25.3 mph 38.0 mph 0.00 in   Overcast
4:53 AM 1.9 °F -24.3 °F -2.0 °F 83% 29.75 in 1.5 mi South 33.4 mph 42.6 mph 0.00 in   Overcast
5:53 AM 3.0 °F -21.4 °F -0.9 °F 84% 29.67 in 1.5 mi South 28.8 mph 36.8 mph 0.00 in Snow Light Snow
6:53 AM 3.9 °F -19.4 °F -0.0 °F 84% 29.64 in 1.2 mi South 26.5 mph - 0.00 in Snow Blowing Snow
7:53 AM 5.0 °F -17.9 °F 1.9 °F 87% 29.58 in 2.0 mi South 26.5 mph 32.2 mph 0.02 in   Overcast
8:53 AM 8.1 °F -13.0 °F 3.9 °F 83% 29.52 in 2.0 mi South 24.2 mph 29.9 mph N/A   Overcast
9:02 AM 8.6 °F -11.9 °F 3.2 °F 79% 29.46 in 2.0 mi South 23.0 mph - N/A   Overcast
9:53 AM 10.0 °F -9.5 °F 6.1 °F 84% 29.50 in 2.0 mi South 21.9 mph 29.9 mph N/A   Overcast
10:40 AM 12.2 °F -7.9 °F 8.6 °F 85% 29.40 in 3.0 mi South 25.3 mph 31.1 mph N/A   Overcast
10:53 AM 12.0 °F -6.5 °F 8.1 °F 84% 29.46 in 3.0 mi South 20.7 mph 29.9 mph N/A   Overcast
11:19 AM 12.2 °F -6.7 °F 8.6 °F 85% 29.35 in 3.0 mi South 21.9 mph 31.1 mph N/A   Overcast
11:53 AM 15.1 °F -2.5 °F 10.9 °F 84% 29.40 in 3.0 mi South 20.7 mph - 0.01 in   Overcast
12:33 PM 15.8 °F -1.5 °F 12.2 °F 86% 29.30 in 3.0 mi South 20.7 mph - N/A   Overcast
12:53 PM 17.1 °F 1.0 °F 12.9 °F 84% 29.35 in 3.0 mi South 18.4 mph - 0.00 in Snow Light Snow
1:53 PM 18.0 °F 2.2 °F 15.1 °F 88% 29.30 in 3.0 mi South 18.4 mph - 0.00 in Snow Light Snow
2:38 PM 19.4 °F 4.1 °F 15.8 °F 86% 29.21 in 2.0 mi South 18.4 mph - 0.01 in   Light Ice Pellets
2:53 PM 19.9 °F 4.3 °F 17.1 °F 89% 29.27 in 2.0 mi South 19.6 mph - 0.01 in   Light Ice Pellets
3:10 PM 19.4 °F 4.5 °F 17.6 °F 93% 29.22 in 2.0 mi South 17.3 mph - 0.00 in Snow Light Snow
3:43 PM 21.2 °F 7.8 °F 17.6 °F 86% 29.21 in 2.0 mi South 15.0 mph - 0.01 in   Light Ice Pellets
3:53 PM 21.0 °F 7.6 °F 19.0 °F 92% 29.27 in 2.0 mi South 15.0 mph - 0.02 in   Light Ice Pellets
4:23 PM 21.2 °F 8.3 °F 19.4 °F 93% 29.20 in 2.0 mi South 13.8 mph - 0.01 in Rain Light Freezing Rain
4:53 PM 24.1 °F 11.5 °F 21.0 °F 88% 29.26 in 2.0 mi South 15.0 mph - 0.02 in Rain Light Freezing Rain
5:07 PM 24.8 °F 11.9 °F 21.2 °F 86% 29.20 in 6.0 mi South 16.1 mph - 0.00 in Rain Light Freezing Rain
5:14 PM 24.8 °F 12.9 °F 21.2 °F 86% 29.20 in 6.0 mi South 13.8 mph - 0.00 in   Overcast
5:53 PM 25.0 °F 19.3 °F 23.0 °F 92% 29.27 in 6.0 mi South 4.6 mph - 0.00 in   Overcast
6:02 PM 24.8 °F - 21.2 °F 86% 29.23 in 3.0 mi Calm Calm - N/A   Overcast
6:14 PM 24.8 °F - 21.2 °F 86% 29.23 in 1.5 mi Calm Calm - 0.01 in   Overcast
6:19 PM 24.8 °F - 23.0 °F 93% 29.24 in 1.5 mi Calm Calm - 0.01 in   Light Freezing Drizzle
6:53 PM 25.0 °F 15.5 °F 24.1 °F 96% 29.30 in 1.5 mi North 9.2 mph - 0.02 in   Light Freezing Drizzle
7:18 PM 17.6 °F -2.8 °F 15.8 °F 93% 29.27 in 0.8 mi NNW 33.4 mph 39.1 mph 0.00 in Snow Light Snow
7:29 PM 15.8 °F -4.4 °F 12.2 °F 86% 29.28 in 0.8 mi North 29.9 mph 40.3 mph 0.00 in Snow Light Snow
7:53 PM 12.9 °F -7.3 °F 10.0 °F 88% 29.37 in 0.5 mi North 26.5 mph 33.4 mph 0.00 in Snow Light Snow
8:00 PM 12.2 °F -8.2 °F 10.4 °F 92% 29.31 in 0.5 mi North 26.5 mph - 0.00 in Snow Light Snow
8:20 PM 12.2 °F -7.1 °F 10.4 °F 92% 29.34 in 0.8 mi North 23.0 mph 31.1 mph 0.00 in Snow Light Snow
8:47 PM 12.2 °F -8.9 °F 8.6 °F 85% 29.38 in 0.8 mi North 28.8 mph 35.7 mph 0.00 in Snow Light Snow
8:53 PM 12.0 °F -9.5 °F 9.0 °F 88% 29.44 in 1.0 mi NNW 29.9 mph 38.0 mph 0.00 in Snow Light Snow
9:43 PM 10.4 °F -12.0 °F 6.8 °F 85% 29.43 in 1.2 mi NNW 31.1 mph - N/A Snow Blowing Snow
9:53 PM 10.0 °F -12.2 °F 6.1 °F 84% 29.50 in 1.0 mi NNW 29.9 mph 39.1 mph N/A Snow Blowing Snow
10:05 PM 10.4 °F -11.4 °F 6.8 °F 85% 29.45 in 0.8 mi NNW 28.8 mph 40.3 mph N/A Snow Blowing Snow
10:18 PM 8.6 °F -13.4 °F 5.0 °F 85% 29.46 in 0.8 mi North 27.6 mph 39.1 mph N/A Snow Light Snow
10:53 PM 8.1 °F -15.2 °F 3.9 °F 83% 29.55 in 0.5 mi NNW 31.1 mph 41.4 mph N/A Snow Light Snow
10:59 PM 8.6 °F -13.4 °F 3.2 °F 79% 29.50 in 0.2 mi NNW 27.6 mph 39.1 mph 0.01 in Snow Light Snow
11:36 PM 8.6 °F -13.1 °F 3.2 °F 79% 29.55 in 0.5 mi NNW 26.5 mph 34.5 mph 0.03 in Snow Light Snow
11:51 PM 6.8 °F -16.9 °F 3.2 °F 85% 29.57 in 0.8 mi NNW 31.1 mph 41.4 mph 0.03 in Rain Light Freezing Rain
11:53 PM 7.0 °F -16.3 °F 3.0 °F 84% 29.63 in 0.8 mi NNW 29.9 mph 41.4 mph 0.03 in Snow Light Snow